Terminal Aerodrome Forecast
Issued by NWS Blacksburg, VA

Home | Current Version | Previous Version | Text Only | Print | Product List | Glossary On
Versions: 1 2 3 4 5 6 7 8 9 10 11 12 13 14 15 16 17 18 19 20 21 22 23 24 25 26 27 28 29 30 31 32 33 34 35 36 37 38 39 40 41 42 43 44 45
000
FTUS41 KRNK 222321
TAFDAN
TAF
KDAN 222321Z 2300/2324 VRB03KT P6SM VCTS SCT050CB
     FM230200 VRB03KT P6SM SCT040
     FM230600 24003KT 4SM BR SCT015
     FM231400 25006KT P6SM SCT040=

USA.gov is the U.S. government's official web portal to all federal, state and local government web resources and services.